[[{"header":{"parameterUnit":"m.s-1","parameterCategory":1,"la1":30.2991,"la2":30.254,"lo1":-89.0895,"lo2":-89.0444,"dy":0.0017,"dx":0.0017,"nx":28,"ny":28,"refTime":"2024-09-28T21:00:00:Z","depth":0,"parameterNumber":2,"parameterNumberName":"U-component_of_WINDS"},"data":[0,0,0,0,0,0,0,0,0,0,0,0,0,0,0,0,0,0,0,0,0,0,0,0,0,0,0,0,0,0,0,0,0,0,0,0,0,0,0,0,0,0,0,0,0,0,0,0,0,0,0,0,0,0,0,0,0,0,2.9353,2.9353,0,2.9409,2.941,2.941,2.9416,2.9416,2.9415,2.9415,2.9476,2.9478,2.948,0,0,0,0,0,0,0,0,0,0,0,0,0,2.9255,2.9257,2.9353,2.9353,2.9354,2.9409,2.941,2.941,2.9416,2.9416,2.9415,2.9414,2.9475,2.9478,2.948,0,0,0,0,0,0,0,0,0,0,0,0,0,2.9303,2.9257,2.9352,2.9364,2.9365,2.9409,2.941,2.9411,2.9417,2.9416,2.9415,2.9414,2.9474,2.9477,2.9481,2.9518,0,0,2.949,2.9492,0,0,0,0,0,0,0,0,2.93,2.9307,2.9361,2.9363,2.9365,2.9405,2.9398,2.9447,2.9417,2.9397,2.9415,2.9414,2.9453,2.9458,2.9471,2.9521,2.9524,2.9491,2.9493,2.9494,2.9495,0,0,0,0,0,0,0,2.9297,2.9304,2.9375,2.9362,2.9364,2.9367,2.9373,2.9407,2.9429,2.9399,2.9399,2.9406,2.9454,2.9467,2.9472,2.9525,2.9491,2.9494,2.9496,2.9497,2.9612,2.9613,0,0,0,0,0,0,2.9291,2.9301,2.9373,2.9377,2.933,2.937,2.9376,2.9393,2.9429,2.9434,2.9406,2.9406,2.9462,2.9468,2.9474,2.9522,2.9494,2.9497,2.9499,2.9611,2.9612,2.9613,0,0,0,0,0,0,2.9289,2.9297,2.9371,2.9339,2.9349,2.9372,2.9391,2.9394,2.9408,2.9435,2.9439,2.9416,2.9462,2.947,2.9508,2.9525,2.9499,2.9502,2.9609,2.9611,2.9613,2.9618,0,0,0,0,0,0,2.9286,2.9296,2.931,2.9339,2.935,2.9402,2.9392,2.9396,2.9413,2.9413,2.9445,2.9449,2.9462,2.9503,2.9511,2.9529,2.9504,2.9608,2.961,2.9612,2.9616,2.9619,2.9622,0,0,0,0,0,2.9282,2.9309,2.931,2.9319,2.9367,2.9403,2.9409,2.9422,2.9414,2.9429,2.9447,2.9448,2.9521,2.9506,2.9516,2.9535,2.9607,2.961,2.9612,2.9615,2.9619,2.9622,0,0,0,0,0,0,2.9281,2.9313,2.9315,2.9351,2.9374,2.9404,2.9422,2.9425,2.9451,2.945,2.9466,2.9474,2.9511,2.9527,2.951,2.9575,2.9564,2.9568,2.9563,2.9567,2.957,2.9565,2.9507,0,0,0,0,0,2.9285,2.931,2.9337,2.9367,2.9378,2.9398,2.9414,2.9422,2.9447,2.9457,2.9477,2.9502,2.9531,2.955,2.9578,2.9619,2.9627,2.9637,2.9639,2.9642,2.9646,2.9671,2.9676,2.9621,2.9621,2.9621,0,0,2.9293,2.9314,2.9328,2.9367,2.9386,2.9413,2.9406,2.9434,2.9455,2.9461,2.9498,2.9515,2.9544,2.9584,2.9603,2.9598,2.9663,2.9645,2.9647,2.9649,2.9674,2.9679,2.9684,2.9623,2.9623,2.9623,0,0,2.9322,2.934,2.9367,2.9386,2.9415,2.9428,2.9435,2.9465,2.9475,2.9513,2.9519,2.9545,2.9593,2.9615,2.9632,2.9672,2.9675,2.9681,2.9696,2.9721,2.9725,2.9729,2.9745,2.975,2.9684,2.9684,2.9684,0,2.9329,2.9369,2.9381,2.941,2.9428,2.9434,2.9464,2.9482,2.9519,2.9532,2.9526,2.9589,2.9609,2.9655,2.9665,2.9678,2.9688,2.9677,2.9723,2.9727,2.9731,2.9747,2.9752,2.9685,2.9685,2.9685,2.9685,0,2.9377,2.9405,2.9424,2.9459,2.9479,2.9508,2.9527,2.9546,2.9553,2.9568,2.9607,2.9632,2.9666,2.9677,2.9684,2.9726,2.9722,2.972,2.9709,2.9737,2.9752,2.9758,2.9686,2.9685,2.9685,2.9685,0,0,2.9406,2.9448,2.9455,2.9472,2.9505,2.9527,2.9558,2.9591,2.9608,2.9633,2.9661,2.9703,2.9701,2.9721,2.9731,2.9752,2.9785,2.9747,2.9748,2.9755,2.9834,2.9837,2.9843,2.9787,2.9788,2.9789,2.9832,0,2.944,2.9492,2.9506,2.9552,2.9579,2.9587,2.9614,2.9638,2.9653,2.968,2.9698,2.9728,2.9722,2.9735,2.9756,2.9776,2.9801,2.9773,2.9815,2.9816,2.9808,2.9851,2.9853,2.9892,2.9838,2.9839,2.984,0,2.9486,2.9512,2.9561,2.9592,2.9604,2.9628,2.966,2.9685,2.9714,2.9724,2.9746,2.9755,2.9789,2.9777,2.9826,2.9807,2.9825,2.9837,2.9839,2.9844,2.983,2.9858,2.9905,2.9911,2.9849,2.9848,2.9847,0,2.9503,2.9551,2.9587,2.9601,2.9638,2.9655,2.9672,2.9699,2.9719,2.9748,2.9761,2.9794,2.9812,2.9838,2.9856,2.9845,2.9905,2.9893,2.9916,2.9915,2.9928,2.9927,2.9979,2.9938,2.9938,2.9938,2.9938,0,2.954,2.957,2.9596,2.9618,2.9653,2.9669,2.9703,2.972,2.9745,2.9772,2.9781,2.9807,2.9829,2.9858,2.9872,2.9912,2.992,2.993,2.9934,2.993,2.9929,2.9942,2.994,2.9939,2.9939,2.9939,2.9938,0,2.9565,2.9584,2.9624,2.9656,2.9665,2.9689,2.9718,2.9741,2.9757,2.9792,2.9801,2.9827,2.9862,2.9882,2.9927,2.9937,2.9981,2.9983,2.9971,2.9973,2.9994,2.9993,3.0058,3.0068,3.0019,3.002,3.002,0,2.9588,2.9611,2.9646,2.9665,2.9681,2.9711,2.9731,2.9749,2.977,2.9806,2.9825,2.9861,2.989,2.9946,2.997,3.0005,3.0009,3.0029,3.0014,3.001,3.0011,3.0009,3.0013,3.0032,3.0032,3.0033,3.0033,0,2.9626,2.9635,2.9663,2.9695,2.9719,2.9745,2.9772,2.9787,2.9809,2.9833,2.9869,2.9892,2.9937,2.9973,3.0011,3.003,3.0036,3.0038,3.0045,3.0041,3.0034,3.004,2.9979,3.0036,3.0036,3.0036,3.0035,3.0035,2.9652,2.9674,2.9702,2.9734,2.9756,2.9781,2.9805,2.9824,2.9854,2.9892,2.9901,2.994,2.9971,3.0021,3.0041,3.0073,3.0069,3.0079,3.0082,3.0085,3.0086,3.0028,3.008,3.008,3.0079,3.0079,3.0079,0,2.9692,2.9711,2.974,2.9777,2.9803,2.9806,2.9836,2.9858,2.9891,2.9919,2.9948,2.999,3.0026,3.0053,3.009,3.011,3.0115,3.012,3.0119,3.0124,3.0086,3.0077,3.0116,3.0116,3.0116,3.0116,3.0116,3.0116,2.9716,2.9753,2.9766,2.9815,2.9835,2.9872,2.9889,2.9913,2.9936,2.9982,3.0012,3.0029,3.0058,3.0097,3.0131,3.0138,3.0152,3.0157,3.0165,3.013,3.0126,3.0122,3.0113,3.016,3.016,3.02,3.0201,3.0201]},{"header":{"parameterUnit":"m.s-1","parameterCategory":1,"la1":30.2991,"la2":30.254,"lo1":-89.0895,"lo2":-89.0444,"dy":0.0017,"dx":0.0017,"nx":28,"ny":28,"refTime":"2024-09-28T21:00:00:Z","depth":0,"parameterNumber":3,"parameterNumberName":"V-component_of_WINDS"},"data":[0,0,0,0,0,0,0,0,0,0,0,0,0,0,0,0,0,0,0,0,0,0,0,0,0,0,0,0,0,0,0,0,0,0,0,0,0,0,0,0,0,0,0,0,0,0,0,0,0,0,0,0,0,0,0,0,0,0,2.6518,2.6519,0,2.6597,2.6598,2.6599,2.6626,2.6625,2.6625,2.6625,2.6703,2.6706,2.6708,0,0,0,0,0,0,0,0,0,0,0,0,0,2.6387,2.6389,2.6518,2.6519,2.652,2.6597,2.6598,2.6599,2.6626,2.6625,2.6625,2.6625,2.6703,2.6705,2.6708,0,0,0,0,0,0,0,0,0,0,0,0,0,2.6452,2.639,2.6518,2.6542,2.6546,2.6596,2.6598,2.6599,2.6626,2.6625,2.6625,2.6625,2.6702,2.6705,2.6709,2.674,0,0,2.672,2.6721,0,0,0,0,0,0,0,0,2.6449,2.6457,2.6538,2.6541,2.6544,2.6601,2.658,2.6646,2.6626,2.6595,2.6625,2.6624,2.667,2.6676,2.6691,2.6744,2.6747,2.672,2.6722,2.6724,2.6725,0,0,0,0,0,0,0,2.6444,2.6454,2.6549,2.6539,2.6543,2.6549,2.6557,2.6593,2.6634,2.6598,2.66,2.6609,2.6671,2.6688,2.6694,2.6748,2.672,2.6723,2.6725,2.6727,2.6828,2.6829,0,0,0,0,0,0,2.6436,2.645,2.6546,2.6551,2.6495,2.6551,2.6561,2.6583,2.6634,2.6641,2.6609,2.661,2.6682,2.6689,2.6696,2.6735,2.6724,2.6727,2.6729,2.6828,2.6828,2.6829,0,0,0,0,0,0,2.6433,2.6444,2.6543,2.6501,2.6514,2.6554,2.6579,2.6585,2.6602,2.6642,2.665,2.6619,2.6682,2.6691,2.6729,2.6738,2.6728,2.6732,2.6827,2.6828,2.6829,2.6814,0,0,0,0,0,0,2.6429,2.6443,2.6456,2.6501,2.6517,2.6575,2.6579,2.6587,2.6608,2.661,2.6654,2.666,2.6682,2.6723,2.6732,2.6743,2.6735,2.6826,2.6827,2.6828,2.6814,2.6814,2.6815,0,0,0,0,0,2.6424,2.6449,2.6457,2.6468,2.6534,2.6576,2.6584,2.661,2.6609,2.6622,2.6648,2.6659,2.6736,2.6727,2.6737,2.6749,2.6826,2.6827,2.6828,2.6814,2.6814,2.6815,0,0,0,0,0,0,2.6403,2.6455,2.6465,2.6504,2.6535,2.658,2.6597,2.661,2.6641,2.6641,2.6671,2.668,2.6715,2.6736,2.6725,2.6781,2.6781,2.6785,2.6767,2.6768,2.6768,2.6762,2.6737,0,0,0,0,0,2.6403,2.6433,2.6477,2.6508,2.6523,2.6557,2.6577,2.6594,2.6627,2.664,2.6668,2.6699,2.673,2.675,2.6781,2.6817,2.6826,2.683,2.6831,2.6831,2.6833,2.6853,2.6855,2.6833,2.6833,2.6833,0,0,2.6403,2.6435,2.6452,2.6504,2.653,2.656,2.6568,2.66,2.6622,2.6644,2.6681,2.6703,2.6739,2.6776,2.6793,2.6794,2.6841,2.6832,2.6832,2.6835,2.6854,2.6856,2.6858,2.6834,2.6834,2.6834,0,0,2.6418,2.6446,2.6474,2.65,2.654,2.6562,2.6569,2.6612,2.6628,2.6665,2.6682,2.6708,2.6762,2.6787,2.6806,2.683,2.6841,2.6839,2.6841,2.6859,2.6861,2.6863,2.687,2.6873,2.6841,2.6841,2.6841,0,2.6413,2.646,2.6487,2.6518,2.6539,2.6562,2.659,2.6613,2.666,2.6674,2.6675,2.6741,2.6768,2.681,2.6815,2.6831,2.6838,2.6834,2.6859,2.6861,2.6863,2.687,2.6873,2.6841,2.6841,2.6841,2.6841,0,2.6451,2.6483,2.6501,2.6546,2.657,2.6599,2.663,2.665,2.6665,2.6687,2.6724,2.6756,2.6794,2.6805,2.6819,2.6849,2.6848,2.6853,2.6854,2.6864,2.6871,2.6875,2.684,2.684,2.684,2.684,0,0,2.6455,2.6515,2.6521,2.6542,2.6586,2.6611,2.664,2.6678,2.6694,2.6726,2.675,2.6794,2.6799,2.6822,2.6839,2.6855,2.6871,2.6859,2.686,2.6859,2.6904,2.6899,2.6902,2.6878,2.6879,2.688,2.69,0,2.6476,2.653,2.6556,2.6599,2.6628,2.6649,2.6674,2.6703,2.6725,2.6752,2.6775,2.6805,2.681,2.6823,2.684,2.6865,2.688,2.6864,2.6901,2.6902,2.6891,2.6906,2.6902,2.692,2.6904,2.6904,2.6905,0,2.6507,2.6539,2.6585,2.6626,2.6639,2.6661,2.6697,2.6723,2.6756,2.677,2.6794,2.6811,2.6841,2.684,2.6881,2.687,2.6886,2.6901,2.6902,2.6906,2.6903,2.691,2.6927,2.6929,2.691,2.6909,2.6909,0,2.6504,2.6559,2.6593,2.661,2.6659,2.6674,2.6694,2.6728,2.6748,2.6778,2.6792,2.6825,2.6843,2.6868,2.6893,2.689,2.6932,2.6933,2.6944,2.6943,2.6952,2.6951,2.697,2.6963,2.6963,2.6963,2.6963,0,2.6525,2.6552,2.6593,2.6614,2.6644,2.6672,2.6702,2.6724,2.6753,2.6777,2.6797,2.682,2.6851,2.6878,2.6897,2.6928,2.6936,2.6948,2.6952,2.6946,2.6944,2.6957,2.6956,2.6963,2.6963,2.6963,2.6963,0,2.6527,2.6556,2.6594,2.6637,2.6648,2.6669,2.6705,2.6725,2.6747,2.6778,2.6787,2.6821,2.6853,2.688,2.6922,2.6935,2.6967,2.6973,2.6956,2.6958,2.6968,2.6966,2.6996,2.7001,2.699,2.699,2.699,0,2.6538,2.6559,2.6604,2.6622,2.6643,2.6672,2.6693,2.6721,2.6742,2.6781,2.6796,2.683,2.6858,2.6908,2.6936,2.6968,2.6974,2.6982,2.6979,2.6971,2.6974,2.6972,2.6974,2.6982,2.6982,2.6982,2.6982,0,2.6553,2.6566,2.6596,2.6631,2.6655,2.6684,2.6713,2.6726,2.6759,2.6781,2.6815,2.6837,2.6879,2.6912,2.6947,2.6967,2.698,2.6983,2.6987,2.6981,2.697,2.6975,2.6956,2.6982,2.6982,2.6982,2.6982,2.6982,2.656,2.6579,2.6614,2.6646,2.6671,2.6697,2.6719,2.6743,2.6772,2.6809,2.6824,2.6857,2.6889,2.6937,2.6957,2.6983,2.6985,2.6991,2.6993,2.6994,2.6992,2.6966,2.699,2.699,2.699,2.699,2.699,0,2.6576,2.6599,2.6628,2.6668,2.6693,2.6704,2.6736,2.6756,2.6786,2.6815,2.6842,2.688,2.6911,2.6942,2.6974,2.6989,2.6996,2.6997,2.6996,2.7,2.6989,2.6982,2.6991,2.6991,2.6991,2.6991,2.6991,2.6991,2.6587,2.6621,2.6638,2.6683,2.6706,2.674,2.6757,2.6781,2.6804,2.6846,2.6872,2.6892,2.6921,2.6956,2.6985,2.6993,2.7004,2.7003,2.7013,2.7002,2.7001,2.7001,2.6994,2.7005,2.7005,2.7022,2.7022,2.7022]}]]